Volver al catálogo

STARLINK-33766

ActivoComunicacionesVLEO
NORAD 63472·PAYLOAD·🇺🇸 United States

Lanzado Apr 6, 2025 desde Cape Canaveral Space Force Station

Loading…

Próximos Pases (próximas 24 horas)

TLE

ActualizadoSource: CelesTrak SupGP

Época: Sep 14, 2026, 20:41 UTC

1 63472C 25070N   26257.86229167  .00011761  00000+0  42612-3 0  2579
2 63472  43.0001 271.8043 0001473 265.8460 102.6910 15.27562453    13

Sigue STARLINK-33766 en tiempo real con AllMySat

Download on the App Store